BAW859 LKPR-EGLL

Flight info

Callsign BAW859
Flight time 1h 43m
Altitude 38000
Route BALTU DCT DONAD DCT RAPET Z93 KODUK DCT MASEK DCT ARPEG DCT ABNED L980 LOGAN
Aircraft A319/M-L/LB1

Departure

Time 2026-05-04 21:24
Airport Václav Havel Airport Prague (LKPR)

Arrival

Time 2026-05-04 23:07
Airport London Heathrow Airport (EGLL)
Time Latitude Longitude Altitude Speed Heading
2026-05-04 21:12 50.11061 14.26757 1176 ft 0 kts 67°
2026-05-04 21:14 50.11059 14.26749 1176 ft 4 kts 68°
2026-05-04 21:14 50.11049 14.26710 1173 ft 4 kts 69°
2026-05-04 21:15 50.11039 14.26678 1172 ft 4 kts 20°
2026-05-04 21:15 50.11034 14.26675 1170 ft 0 kts 329°
2026-05-04 21:17 50.11034 14.26674 1170 ft 1 kts 329°
2026-05-04 21:17 50.11042 14.26667 1175 ft 6 kts 328°
2026-05-04 21:17 50.11070 14.26547 1173 ft 17 kts 240°
2026-05-04 21:18 50.10965 14.26425 1170 ft 17 kts 216°
2026-05-04 21:18 50.10861 14.26314 1169 ft 19 kts 216°
2026-05-04 21:18 50.10755 14.26200 1174 ft 18 kts 214°
2026-05-04 21:18 50.10655 14.26095 1181 ft 17 kts 214°
2026-05-04 21:19 50.10561 14.26000 1187 ft 15 kts 212°
2026-05-04 21:19 50.10504 14.25864 1186 ft 18 kts 259°
2026-05-04 21:19 50.10477 14.25650 1184 ft 22 kts 259°
2026-05-04 21:19 50.10445 14.25390 1173 ft 27 kts 259°
2026-05-04 21:20 50.10407 14.25084 1174 ft 30 kts 258°
2026-05-04 21:20 50.10372 14.24809 1175 ft 25 kts 259°
2026-05-04 21:20 50.10338 14.24530 1176 ft 25 kts 259°
2026-05-04 21:20 50.10306 14.24283 1185 ft 23 kts 258°
2026-05-04 21:21 50.10275 14.24038 1189 ft 23 kts 259°
2026-05-04 21:21 50.10245 14.23802 1197 ft 22 kts 259°
2026-05-04 21:21 50.10219 14.23589 1207 ft 18 kts 259°
2026-05-04 21:21 50.10187 14.23396 1213 ft 22 kts 249°
2026-05-04 21:22 50.10116 14.23152 1225 ft 24 kts 245°
2026-05-04 21:22 50.10047 14.22918 1232 ft 22 kts 249°
2026-05-04 21:22 50.10102 14.22726 1247 ft 20 kts 339°
2026-05-04 21:22 50.10196 14.22703 1239 ft 15 kts
2026-05-04 21:23 50.10262 14.22891 1230 ft 39 kts 65°
2026-05-04 21:23 50.10479 14.23611 1198 ft 106 kts 65°
2026-05-04 21:23 50.10875 14.24931 1175 ft 160 kts 65°
2026-05-04 21:23 50.11358 14.26532 1786 ft 158 kts 64°
2026-05-04 21:24 50.11817 14.28062 2493 ft 156 kts 66°
2026-05-04 21:24 50.12296 14.29674 2868 ft 174 kts 67°
2026-05-04 21:24 50.12841 14.31506 3202 ft 197 kts 67°
2026-05-04 21:24 50.13448 14.33555 3538 ft 219 kts 66°
2026-05-04 21:25 50.14120 14.35817 3980 ft 240 kts 66°
2026-05-04 21:25 50.14835 14.38219 4770 ft 247 kts 66°
2026-05-04 21:25 50.15575 14.40697 5401 ft 266 kts 66°
2026-05-04 21:25 50.16373 14.43365 6235 ft 276 kts 65°
2026-05-04 21:26 50.17493 14.45826 7076 ft 284 kts 42°
2026-05-04 21:26 50.19199 14.47392 7969 ft 289 kts 17°
2026-05-04 21:26 50.21196 14.47705 8872 ft 292 kts 351°
2026-05-04 21:26 50.23102 14.46668 9800 ft 292 kts 327°
2026-05-04 21:27 50.24831 14.44923 10457 ft 305 kts 323°
2026-05-04 21:27 50.26668 14.43027 10811 ft 326 kts 323°
2026-05-04 21:27 50.27938 14.41715 11226 ft 332 kts 323°
2026-05-04 21:27 50.30551 14.39025 12250 ft 340 kts 322°
2026-05-04 21:28 50.31867 14.37672 12770 ft 343 kts 322°
2026-05-04 21:28 50.33881 14.35608 13549 ft 348 kts 322°
2026-05-04 21:28 50.35896 14.33478 14263 ft 350 kts 317°
2026-05-04 21:28 50.37530 14.30707 14934 ft 345 kts 298°
2026-05-04 21:29 50.38525 14.27328 15622 ft 341 kts 282°
2026-05-04 21:29 50.38814 14.23662 16299 ft 340 kts 265°
2026-05-04 21:29 50.38376 14.20034 16942 ft 340 kts 248°
2026-05-04 21:29 50.37406 14.16633 17629 ft 344 kts 244°
2026-05-04 21:30 50.36378 14.13223 18273 ft 349 kts 244°
2026-05-04 21:30 50.35333 14.09768 18843 ft 353 kts 244°
2026-05-04 21:30 50.34277 14.06276 19426 ft 356 kts 244°
2026-05-04 21:30 50.33213 14.02754 20021 ft 360 kts 244°
2026-05-04 21:31 50.31057 13.95601 21202 ft 367 kts 244°
2026-05-04 21:31 50.29964 13.91973 21797 ft 370 kts 244°
2026-05-04 21:31 50.28863 13.88328 22425 ft 372 kts 244°
2026-05-04 21:32 50.27752 13.84656 23012 ft 375 kts 244°
2026-05-04 21:32 50.26631 13.80961 23588 ft 378 kts 244°
2026-05-04 21:32 50.25498 13.77244 24059 ft 380 kts 244°
2026-05-04 21:32 50.24352 13.73498 24540 ft 383 kts 244°
2026-05-04 21:33 50.23198 13.69731 25006 ft 385 kts 244°
2026-05-04 21:33 50.21879 13.66078 25467 ft 388 kts 239°
2026-05-04 21:33 50.20482 13.62458 25929 ft 390 kts 239°
2026-05-04 21:33 50.19076 13.58819 26380 ft 393 kts 239°
2026-05-04 21:34 50.17662 13.55159 26839 ft 395 kts 239°
2026-05-04 21:34 50.16234 13.51464 27282 ft 398 kts 239°
2026-05-04 21:34 50.14801 13.47753 27726 ft 400 kts 239°
2026-05-04 21:34 50.13377 13.44068 28167 ft 403 kts 239°
2026-05-04 21:35 50.11924 13.40314 28610 ft 405 kts 239°
2026-05-04 21:35 50.10504 13.36507 29029 ft 408 kts 243°
2026-05-04 21:35 50.09447 13.32392 29420 ft 412 kts 253°
2026-05-04 21:35 50.08868 13.28006 29824 ft 416 kts 263°
2026-05-04 21:36 50.08714 13.23495 30204 ft 419 kts 266°
2026-05-04 21:36 50.08603 13.18946 30558 ft 421 kts 266°
2026-05-04 21:36 50.08485 13.14385 30910 ft 423 kts 266°
2026-05-04 21:36 50.08361 13.09794 31261 ft 425 kts 266°
2026-05-04 21:37 50.08235 13.05183 31601 ft 427 kts 266°
2026-05-04 21:37 50.08270 13.00560 32013 ft 428 kts 273°
2026-05-04 21:37 50.08767 12.95984 32506 ft 429 kts 282°
2026-05-04 21:37 50.09527 12.91491 32992 ft 428 kts 282°
2026-05-04 21:38 50.10271 12.87076 33502 ft 426 kts 281°
2026-05-04 21:38 50.11020 12.82609 33978 ft 425 kts 281°
2026-05-04 21:38 50.11767 12.78148 34396 ft 424 kts 281°
2026-05-04 21:38 50.12508 12.73709 34809 ft 423 kts 281°
2026-05-04 21:39 50.13245 12.69278 35242 ft 422 kts 281°
2026-05-04 21:39 50.13977 12.64855 35657 ft 421 kts 281°
2026-05-04 21:39 50.14705 12.60448 36047 ft 419 kts 281°
2026-05-04 21:39 50.15431 12.56044 36437 ft 418 kts 281°
2026-05-04 21:40 50.16153 12.51653 36802 ft 417 kts 281°
2026-05-04 21:40 50.16873 12.47273 37175 ft 416 kts 281°
2026-05-04 21:40 50.17587 12.42902 37520 ft 416 kts 281°
2026-05-04 21:40 50.18297 12.38530 37851 ft 416 kts 281°
2026-05-04 21:41 50.18891 12.34116 37964 ft 413 kts 274°
2026-05-04 21:41 50.19030 12.25211 37973 ft 410 kts 267°
2026-05-04 21:42 50.18994 12.16318 37987 ft 409 kts 267°
2026-05-04 21:42 50.18957 12.07485 37993 ft 409 kts 267°
2026-05-04 21:43 50.18918 11.98603 38013 ft 409 kts 266°
2026-05-04 21:43 50.18863 11.89723 38007 ft 409 kts 266°
2026-05-04 21:44 50.18799 11.80841 38006 ft 410 kts 267°
2026-05-04 21:44 50.18889 11.71944 38003 ft 410 kts 269°
2026-05-04 21:45 50.19063 11.63043 38001 ft 410 kts 269°
2026-05-04 21:45 50.19209 11.54142 37999 ft 410 kts 268°
2026-05-04 21:46 50.19316 11.45248 38010 ft 410 kts 268°
2026-05-04 21:46 50.19405 11.36359 38003 ft 409 kts 268°
2026-05-04 21:47 50.19498 11.27472 38000 ft 409 kts 268°
2026-05-04 21:47 50.19582 11.18583 37988 ft 409 kts 268°
2026-05-04 21:48 50.19657 11.09764 37987 ft 409 kts 268°
2026-05-04 21:48 50.19734 11.00882 37980 ft 410 kts 269°
2026-05-04 21:49 50.20939 10.92121 37967 ft 420 kts 288°
2026-05-04 21:49 50.23877 10.84133 37966 ft 426 kts 298°
2026-05-04 21:50 50.27051 10.76299 37963 ft 427 kts 297°
2026-05-04 21:50 50.30205 10.68432 37976 ft 427 kts 297°
2026-05-04 21:51 50.33361 10.60545 37987 ft 428 kts 297°
2026-05-04 21:51 50.36499 10.52687 37978 ft 428 kts 297°
2026-05-04 21:52 50.39660 10.44760 37979 ft 429 kts 297°
2026-05-04 21:52 50.42824 10.36828 37998 ft 429 kts 297°
2026-05-04 21:53 50.45982 10.28881 38003 ft 429 kts 297°
2026-05-04 21:53 50.49122 10.20909 38019 ft 429 kts 297°
2026-05-04 21:54 50.52255 10.12945 38014 ft 429 kts 297°
2026-05-04 21:54 50.55393 10.04962 38013 ft 429 kts 297°
2026-05-04 21:55 50.58520 9.96970 38005 ft 429 kts 297°
2026-05-04 21:55 50.61650 9.88969 38003 ft 429 kts 297°
2026-05-04 21:56 50.64745 9.81008 38023 ft 429 kts 296°
2026-05-04 21:56 50.67850 9.72980 38014 ft 429 kts 296°
2026-05-04 21:57 50.70951 9.64941 38005 ft 429 kts 296°
2026-05-04 21:57 50.73666 9.56642 38009 ft 422 kts 285°
2026-05-04 21:58 50.75655 9.47899 38007 ft 422 kts 285°
2026-05-04 21:58 50.77642 9.39172 38021 ft 422 kts 285°
2026-05-04 21:59 50.79624 9.30423 38011 ft 423 kts 285°
2026-05-04 21:59 50.81607 9.21661 38005 ft 423 kts 285°
2026-05-04 22:00 50.83580 9.12879 38003 ft 424 kts 285°
2026-05-04 22:00 50.85547 9.04086 38003 ft 424 kts 285°
2026-05-04 22:01 50.87498 8.95340 38007 ft 424 kts 285°
2026-05-04 22:01 50.89454 8.86530 38009 ft 424 kts 284°
2026-05-04 22:02 50.91402 8.77712 38010 ft 424 kts 284°
2026-05-04 22:02 50.93339 8.68888 38013 ft 424 kts 284°
2026-05-04 22:03 50.95280 8.60047 38014 ft 424 kts 284°
2026-05-04 22:03 50.97216 8.51205 38033 ft 424 kts 284°
2026-05-04 22:04 50.99137 8.42356 38013 ft 424 kts 284°
2026-05-04 22:04 51.01040 8.33534 38008 ft 425 kts 284°
2026-05-04 22:05 51.02866 8.24610 38005 ft 424 kts 282°
2026-05-04 22:05 51.04526 8.15613 38007 ft 424 kts 281°
2026-05-04 22:06 51.06152 8.06589 38020 ft 424 kts 282°
2026-05-04 22:06 51.07796 7.97582 38022 ft 424 kts 282°
2026-05-04 22:07 51.09451 7.88568 38013 ft 425 kts 282°
2026-05-04 22:07 51.11112 7.79536 38009 ft 425 kts 282°
2026-05-04 22:08 51.12757 7.70502 38009 ft 425 kts 282°
2026-05-04 22:08 51.14389 7.61455 38009 ft 425 kts 282°
2026-05-04 22:09 51.16015 7.52405 38016 ft 425 kts 282°
2026-05-04 22:09 51.17633 7.43351 38015 ft 425 kts 282°
2026-05-04 22:10 51.19237 7.34363 38002 ft 424 kts 282°
2026-05-04 22:10 51.20845 7.25297 38000 ft 424 kts 282°
2026-05-04 22:11 51.22439 7.16242 37997 ft 424 kts 282°
2026-05-04 22:11 51.24028 7.07179 38006 ft 424 kts 282°
2026-05-04 22:12 51.25612 6.98109 37994 ft 424 kts 282°
2026-05-04 22:12 51.27183 6.89037 37986 ft 424 kts 282°
2026-05-04 22:13 51.28749 6.79957 37984 ft 424 kts 282°
2026-05-04 22:13 51.30048 6.72412 37982 ft 424 kts 281°
2026-05-04 22:14 51.31608 6.63328 37989 ft 424 kts 282°
2026-05-04 22:14 51.33162 6.54217 37983 ft 424 kts 282°
2026-05-04 22:15 51.34703 6.45104 37974 ft 425 kts 281°
2026-05-04 22:15 51.36237 6.35981 37977 ft 425 kts 281°
2026-05-04 22:16 51.37770 6.26845 37976 ft 425 kts 281°
2026-05-04 22:16 51.39298 6.17701 37986 ft 425 kts 282°
2026-05-04 22:17 51.40812 6.08552 37978 ft 425 kts 281°
2026-05-04 22:17 51.42323 5.99388 37982 ft 426 kts 281°
2026-05-04 22:18 51.43833 5.90209 37978 ft 426 kts 281°
2026-05-04 22:18 51.45331 5.81022 37977 ft 426 kts 281°
2026-05-04 22:19 51.46821 5.71830 37978 ft 426 kts 281°
2026-05-04 22:19 51.48307 5.62613 37965 ft 427 kts 281°
2026-05-04 22:20 51.49777 5.53434 37967 ft 428 kts 281°
2026-05-04 22:20 51.51254 5.44177 37969 ft 428 kts 281°
2026-05-04 22:21 51.52732 5.34908 37969 ft 429 kts 281°
2026-05-04 22:21 51.54194 5.25629 37985 ft 429 kts 281°
2026-05-04 22:22 51.55654 5.16341 37983 ft 428 kts 281°
2026-05-04 22:22 51.57103 5.07043 37984 ft 428 kts 281°
2026-05-04 22:23 51.58541 4.97750 37984 ft 428 kts 281°
2026-05-04 22:23 51.59976 4.88462 37983 ft 428 kts 281°
2026-05-04 22:24 51.61390 4.79229 37986 ft 428 kts 281°
2026-05-04 22:24 51.62810 4.69918 37975 ft 429 kts 281°
2026-05-04 22:25 51.64225 4.60596 37972 ft 429 kts 281°
2026-05-04 22:25 51.65632 4.51263 37973 ft 429 kts 281°
2026-05-04 22:26 51.67030 4.41919 37973 ft 429 kts 281°
2026-05-04 22:26 51.68421 4.32561 37975 ft 429 kts 281°
2026-05-04 22:27 51.69803 4.23241 37981 ft 429 kts 281°
2026-05-04 22:27 51.71179 4.13875 37983 ft 429 kts 281°
2026-05-04 22:28 51.72550 4.04469 37993 ft 429 kts 280°
2026-05-04 22:28 51.73904 3.95124 37993 ft 429 kts 281°
2026-05-04 22:29 51.75268 3.85723 38021 ft 429 kts 281°
2026-05-04 22:29 51.76617 3.76369 38016 ft 429 kts 281°
2026-05-04 22:30 51.77944 3.66996 38025 ft 429 kts 281°
2026-05-04 22:30 51.79270 3.57621 38017 ft 428 kts 281°
2026-05-04 22:31 51.80596 3.48268 38019 ft 428 kts 281°
2026-05-04 22:31 51.81923 3.38884 38028 ft 428 kts 280°
2026-05-04 22:32 51.83234 3.29467 38037 ft 428 kts 280°
2026-05-04 22:32 51.84497 3.20066 38024 ft 427 kts 276°
2026-05-04 22:32 51.84728 3.15280 37782 ft 425 kts 267°
2026-05-04 22:33 51.84508 3.10583 37513 ft 423 kts 262°
2026-05-04 22:33 51.84184 3.05828 37242 ft 423 kts 262°
2026-05-04 22:33 51.83876 3.01140 36978 ft 422 kts 262°
2026-05-04 22:33 51.83570 2.96403 36715 ft 422 kts 262°
2026-05-04 22:34 51.83266 2.91673 36461 ft 422 kts 262°
2026-05-04 22:34 51.82957 2.86953 36205 ft 422 kts 262°
2026-05-04 22:34 51.82643 2.82231 35951 ft 422 kts 262°
2026-05-04 22:34 51.82326 2.77509 35699 ft 422 kts 262°
2026-05-04 22:35 51.82010 2.72863 35451 ft 420 kts 262°
2026-05-04 22:35 51.81689 2.68184 35207 ft 418 kts 262°
2026-05-04 22:35 51.81370 2.63529 34971 ft 415 kts 262°
2026-05-04 22:35 51.81051 2.58904 34726 ft 412 kts 262°
2026-05-04 22:36 51.80735 2.54328 34323 ft 408 kts 262°
2026-05-04 22:36 51.80420 2.49772 33835 ft 406 kts 262°
2026-05-04 22:36 51.80106 2.45256 33353 ft 403 kts 262°
2026-05-04 22:36 51.79792 2.40783 32902 ft 399 kts 262°
2026-05-04 22:37 51.79478 2.36350 32435 ft 395 kts 262°
2026-05-04 22:37 51.79164 2.31960 31985 ft 392 kts 262°
2026-05-04 22:37 51.78851 2.27605 31538 ft 389 kts 262°
2026-05-04 22:37 51.78540 2.23336 31091 ft 385 kts 261°
2026-05-04 22:38 51.78238 2.18999 30654 ft 383 kts 262°
2026-05-04 22:38 51.77974 2.14729 30224 ft 380 kts 263°
2026-05-04 22:38 51.77734 2.10495 29765 ft 378 kts 263°
2026-05-04 22:38 51.77505 2.06346 29361 ft 374 kts 263°
2026-05-04 22:39 51.77273 2.02184 28954 ft 371 kts 263°
2026-05-04 22:39 51.77039 1.98062 28569 ft 367 kts 263°
2026-05-04 22:39 51.76800 1.93973 28189 ft 364 kts 263°
2026-05-04 22:39 51.76559 1.89922 27803 ft 361 kts 262°
2026-05-04 22:40 51.76315 1.85891 27424 ft 358 kts 262°
2026-05-04 22:40 51.76071 1.81887 27042 ft 355 kts 262°
2026-05-04 22:40 51.75829 1.77977 26681 ft 351 kts 262°
2026-05-04 22:40 51.75584 1.74070 26311 ft 348 kts 262°
2026-05-04 22:41 51.75338 1.70206 25942 ft 344 kts 262°
2026-05-04 22:41 51.75093 1.66370 25560 ft 342 kts 262°
2026-05-04 22:41 51.74848 1.62567 25178 ft 339 kts 262°
2026-05-04 22:41 51.74606 1.58775 24740 ft 345 kts 263°
2026-05-04 22:42 51.74357 1.54880 24202 ft 351 kts 263°
2026-05-04 22:42 51.74105 1.50942 23670 ft 353 kts 262°
2026-05-04 22:42 51.73857 1.47043 23084 ft 353 kts 263°
2026-05-04 22:42 51.73607 1.43113 22558 ft 352 kts 262°
2026-05-04 22:43 51.73356 1.39193 22029 ft 350 kts 262°
2026-05-04 22:43 51.73102 1.35299 21509 ft 349 kts 262°
2026-05-04 22:43 51.72846 1.31399 20985 ft 347 kts 262°
2026-05-04 22:43 51.72587 1.27525 20466 ft 346 kts 262°
2026-05-04 22:44 51.72330 1.23669 19949 ft 345 kts 262°
2026-05-04 22:44 51.72075 1.19877 19437 ft 345 kts 263°
2026-05-04 22:44 51.71819 1.16055 19117 ft 338 kts 263°
2026-05-04 22:44 51.71571 1.12319 18815 ft 332 kts 263°
2026-05-04 22:45 51.71325 1.08617 18444 ft 328 kts 262°
2026-05-04 22:45 51.70828 1.01363 17508 ft 325 kts 263°
2026-05-04 22:45 51.70576 0.97732 17038 ft 324 kts 263°
2026-05-04 22:46 51.70331 0.94172 16587 ft 323 kts 263°
2026-05-04 22:46 51.70083 0.90573 16153 ft 322 kts 263°
2026-05-04 22:46 51.69836 0.86991 15733 ft 320 kts 263°
2026-05-04 22:46 51.69589 0.83436 15317 ft 318 kts 263°
2026-05-04 22:47 51.69342 0.79895 14907 ft 316 kts 263°
2026-05-04 22:47 51.69089 0.76377 14514 ft 315 kts 263°
2026-05-04 22:47 51.68839 0.72880 14115 ft 313 kts 263°
2026-05-04 22:47 51.68593 0.69404 13712 ft 312 kts 263°
2026-05-04 22:48 51.68348 0.65941 13291 ft 310 kts 263°
2026-05-04 22:48 51.68108 0.62549 12916 ft 307 kts 263°
2026-05-04 22:48 51.67862 0.59163 12626 ft 301 kts 263°
2026-05-04 22:48 51.67619 0.55837 12276 ft 298 kts 263°
2026-05-04 22:49 51.67377 0.52528 11888 ft 296 kts 263°
2026-05-04 22:49 51.67140 0.49237 11552 ft 294 kts 263°
2026-05-04 22:49 51.66907 0.45973 11181 ft 292 kts 263°
2026-05-04 22:49 51.66669 0.42734 10825 ft 290 kts 263°
2026-05-04 22:50 51.66429 0.39515 10479 ft 289 kts 263°
2026-05-04 22:50 51.66187 0.36312 10134 ft 287 kts 263°
2026-05-04 22:50 51.65947 0.33135 9771 ft 285 kts 263°
2026-05-04 22:50 51.65712 0.30012 9405 ft 283 kts 263°
2026-05-04 22:51 51.65475 0.26876 9053 ft 280 kts 263°
2026-05-04 22:51 51.65244 0.23782 8826 ft 274 kts 263°
2026-05-04 22:51 51.65020 0.20792 8693 ft 264 kts 263°
2026-05-04 22:51 51.64803 0.17907 8562 ft 255 kts 263°
2026-05-04 22:52 51.64614 0.15085 8206 ft 256 kts 266°
2026-05-04 22:52 51.64480 0.12240 8046 ft 249 kts 266°
2026-05-04 22:52 51.64356 0.09518 8052 ft 245 kts 266°
2026-05-04 22:52 51.64236 0.06797 7856 ft 243 kts 266°
2026-05-04 22:53 51.64113 0.04083 7571 ft 241 kts 266°
2026-05-04 22:53 51.63987 0.01403 7309 ft 239 kts 266°
2026-05-04 22:53 51.63860 -0.01230 7101 ft 238 kts 266°
2026-05-04 22:53 51.63732 -0.03892 7051 ft 237 kts 266°
2026-05-04 22:54 51.63607 -0.06553 7055 ft 238 kts 266°
2026-05-04 22:54 51.63482 -0.09205 7056 ft 237 kts 266°
2026-05-04 22:54 51.63359 -0.11858 7055 ft 238 kts 266°
2026-05-04 22:54 51.63236 -0.14474 7058 ft 238 kts 266°
2026-05-04 22:55 51.63108 -0.17125 7055 ft 237 kts 266°
2026-05-04 22:55 51.62981 -0.19779 7056 ft 238 kts 266°
2026-05-04 22:55 51.62854 -0.22449 7057 ft 238 kts 266°
2026-05-04 22:55 51.62727 -0.25113 7057 ft 238 kts 266°
2026-05-04 22:56 51.62600 -0.27752 7056 ft 238 kts 266°
2026-05-04 22:56 51.62472 -0.30411 7057 ft 238 kts 266°
2026-05-04 22:56 51.62346 -0.33060 7057 ft 238 kts 266°
2026-05-04 22:56 51.62218 -0.35718 7057 ft 238 kts 266°
2026-05-04 22:57 51.62093 -0.38352 7056 ft 238 kts 266°
2026-05-04 22:57 51.61965 -0.41022 7056 ft 238 kts 266°
2026-05-04 22:57 51.61838 -0.43674 7058 ft 238 kts 266°
2026-05-04 22:57 51.61710 -0.46318 6839 ft 236 kts 266°
2026-05-04 22:58 51.61579 -0.48947 6538 ft 235 kts 266°
2026-05-04 22:58 51.61450 -0.51531 6143 ft 234 kts 266°
2026-05-04 22:58 51.61314 -0.54136 5706 ft 233 kts 266°
2026-05-04 22:58 51.61178 -0.56735 5340 ft 231 kts 266°
2026-05-04 22:59 51.61041 -0.59304 4960 ft 229 kts 266°
2026-05-04 22:59 51.60902 -0.61817 4572 ft 227 kts 266°
2026-05-04 22:59 51.60756 -0.64295 4379 ft 217 kts 266°
2026-05-04 22:59 51.60616 -0.66670 4249 ft 206 kts 266°
2026-05-04 23:00 51.60485 -0.68911 4128 ft 195 kts 267°
2026-05-04 23:00 51.60329 -0.71026 3994 ft 188 kts 260°
2026-05-04 23:00 51.59673 -0.72767 3671 ft 188 kts 220°
2026-05-04 23:00 51.58458 -0.73497 3188 ft 191 kts 186°
2026-05-04 23:01 51.57131 -0.73622 3010 ft 191 kts 181°
2026-05-04 23:01 51.55790 -0.73705 3008 ft 192 kts 181°
2026-05-04 23:01 51.54446 -0.73800 3008 ft 193 kts 181°
2026-05-04 23:01 51.53101 -0.73903 3009 ft 193 kts 181°
2026-05-04 23:02 51.51761 -0.73999 3007 ft 193 kts 181°
2026-05-04 23:02 51.50414 -0.74093 3008 ft 194 kts 181°
2026-05-04 23:02 51.49068 -0.74123 2999 ft 192 kts 172°
2026-05-04 23:02 51.47963 -0.73150 2766 ft 178 kts 124°
2026-05-04 23:03 51.47628 -0.71412 2634 ft 163 kts 89°
2026-05-04 23:03 51.47645 -0.69620 2571 ft 159 kts 88°
2026-05-04 23:03 51.47654 -0.67849 2460 ft 159 kts 87°
2026-05-04 23:03 51.47663 -0.66086 2294 ft 158 kts 88°
2026-05-04 23:04 51.47673 -0.64329 2088 ft 157 kts 87°
2026-05-04 23:04 51.47679 -0.63170 1949 ft 156 kts 87°
2026-05-04 23:04 51.47688 -0.61441 1738 ft 155 kts 87°
2026-05-04 23:04 51.47700 -0.59155 1455 ft 154 kts 87°
2026-05-04 23:05 51.47705 -0.57990 1311 ft 155 kts 87°
2026-05-04 23:05 51.47709 -0.56266 1169 ft 150 kts 87°
2026-05-04 23:05 51.47719 -0.54707 942 ft 132 kts 86°
2026-05-04 23:05 51.47724 -0.53300 746 ft 125 kts 88°
2026-05-04 23:06 51.47730 -0.51923 561 ft 124 kts 86°
2026-05-04 23:06 51.47741 -0.50548 406 ft 122 kts 87°
2026-05-04 23:06 51.47746 -0.49202 221 ft 120 kts 87°
2026-05-04 23:06 51.47750 -0.47882 89 ft 110 kts 87°
2026-05-04 23:07 51.47756 -0.46872 91 ft 62 kts 90°
2026-05-04 23:07 51.47756 -0.46453 92 ft 31 kts 90°
2026-05-04 23:07 51.47734 -0.46186 89 ft 19 kts 130°
2026-05-04 23:07 51.47671 -0.46111 85 ft 7 kts 144°
2026-05-04 23:08 51.47649 -0.46085 86 ft 4 kts 144°
2026-05-04 23:08 51.47625 -0.46058 85 ft 5 kts 144°
2026-05-04 23:08 51.47616 -0.46053 87 ft 0 kts 170°
2026-05-04 23:09 51.47614 -0.46055 87 ft 2 kts 192°
2026-05-04 23:09 51.47595 -0.46154 89 ft 13 kts 269°
2026-05-04 23:09 51.47594 -0.46316 89 ft 16 kts 269°
2026-05-04 23:09 51.47593 -0.46521 90 ft 21 kts 270°
2026-05-04 23:10 51.47593 -0.46745 90 ft 18 kts 270°
2026-05-04 23:10 51.47583 -0.46959 90 ft 21 kts 269°
2026-05-04 23:10 51.47583 -0.47216 88 ft 23 kts 270°
2026-05-04 23:10 51.47583 -0.47463 85 ft 20 kts 270°
2026-05-04 23:11 51.47583 -0.47705 86 ft 22 kts 269°
2026-05-04 23:11 51.47581 -0.47953 89 ft 21 kts 270°
2026-05-04 23:11 51.47580 -0.48194 92 ft 22 kts 269°
2026-05-04 23:11 51.47578 -0.48390 89 ft 13 kts 269°
2026-05-04 23:12 51.47509 -0.48478 85 ft 18 kts 179°
2026-05-04 23:12 51.47370 -0.48476 85 ft 20 kts 182°
2026-05-04 23:12 51.47232 -0.48476 85 ft 20 kts 180°
2026-05-04 23:12 51.47082 -0.48475 85 ft 21 kts 179°
2026-05-04 23:13 51.46957 -0.48474 85 ft 18 kts 179°
2026-05-04 23:13 51.46876 -0.48477 85 ft 9 kts 205°
2026-05-04 23:13 51.46877 -0.48548 87 ft 6 kts 272°
2026-05-04 23:13 51.46911 -0.48575 85 ft 7 kts 357°
2026-05-04 23:14 51.46928 -0.48575 85 ft 0 kts 359°